{"data":{"norad_id":65878,"intl_designator":"2025-223AA","name":"STARLINK-35453","alt_names":[],"object_type":"PAYLOAD","status":"ACTIVE","operator":null,"country":"US","launch_date":"2025-10-03","launch_site_code":"AFWTR","launch_vehicle":null,"mission":null,"orbit_class":"UNKNOWN","rcs_meters":null,"size_class":null,"mass_kg":null,"dimensions":null,"purposes":["comms"],"wikipedia_slug":null,"has_3d_model":false,"image_url":null,"decayed_at":null,"tle_current":{"epoch":"2026-05-24T19:22:48.477792Z","epoch_age_seconds":85561,"freshness":"FRESH","line1":"1 65878U 25223AA  26144.80750553  .00022130  00000+0  66412-3 0  9997","line2":"2 65878  53.1597 300.3282 0000870  81.4237 278.6865 15.34402128 35868","mean_motion":15.34402128,"eccentricity":8.7e-5,"inclination_deg":53.1597,"raan_deg":300.3282,"arg_perigee_deg":81.4237,"mean_anomaly_deg":278.6865,"bstar":0.00066412,"rev_number":3586,"period_min":93.84762792769,"perigee_km":462.10176279932,"apogee_km":463.29206790059,"semimajor_km":6840.83391535,"source":"CELESTRAK","updated_at":"2026-05-25T13:38:20.977518Z"}}}